EDT,Max TemperatureF,Mean TemperatureF,Min TemperatureF,Max Dew PointF,MeanDew PointF,Min DewpointF,Max Humidity, Mean Humidity, Min Humidity, Max Sea Level PressureIn, Mean Sea Level PressureIn, Min Sea Level PressureIn, Max VisibilityMiles, Mean VisibilityMiles, Min VisibilityMiles, Max Wind SpeedMPH, Mean Wind SpeedMPH, Max Gust SpeedMPH,PrecipitationIn, CloudCover, Events, WindDirDegrees
2013-6-1,87,80,72,72,68,63,79,65,51,30.06,30.01,29.95,10,9,6,18,7,25,0.14,6,Rain-Thunderstorm,166
2013-6-2,83,76,68,71,68,64,93,74,55,29.97,29.93,29.87,10,8,2,14,3,20,0.34,7,Fog-Rain-Thunderstorm,211
2013-6-3,85,76,66,67,63,57,93,67,40,30.00,29.93,29.88,10,10,10,13,4,16,0.00,4,,344
2013-6-4,86,74,61,63,59,56,90,65,40,30.03,29.99,29.96,10,10,10,12,3,16,0.00,3,,13
2013-6-5,83,75,66,70,66,63,97,80,63,30.04,29.97,29.91,10,8,0,29,2,61,0.54,7,Fog-Rain-Thunderstorm,252
2013-6-6,86,77,67,70,67,66,93,76,58,29.93,29.83,29.73,10,10,8,12,4,16,0.00,6,Fog,170
2013-6-7,85,76,67,69,67,64,97,74,51,29.88,29.77,29.71,10,9,2,13,2,17,0.09,5,Fog-Rain,279
2013-6-8,84,75,66,68,65,63,100,76,51,30.05,29.95,29.86,10,8,2,12,3,15,0.00,6,,193
2013-6-9,83,76,68,72,69,65,93,78,63,30.08,30.02,29.95,10,7,1,15,2,22,0.18,7,Fog-Rain-Thunderstorm,165
2013-6-10,86,78,69,70,66,60,93,68,42,30.01,29.95,29.88,10,7,0,18,7,23,0.89,6,Fog-Rain,203
2013-6-11,91,81,71,72,70,67,93,69,44,30.05,29.99,29.95,10,10,10,16,3,20,0.17,5,Fog-Rain,268
2013-6-12,94,83,72,74,72,70,93,70,46,30.06,30.00,29.94,10,10,10,12,3,15,0.00,3,,218
2013-6-13,92,83,73,73,70,65,79,66,52,29.94,29.85,29.77,10,9,1,30,10,44,0.23,4,Rain-Thunderstorm,267
2013-6-14,86,76,65,65,58,54,73,55,37,30.01,29.95,29.89,10,10,10,18,8,25,0.00,3,,16
2013-6-15,87,76,64,64,61,59,87,64,40,30.12,30.06,30.02,10,10,10,14,4,17,0.00,3,,175
2013-6-16,88,77,66,72,66,63,93,72,50,30.12,30.05,29.99,10,9,0,30,4,43,0.45,5,Rain-Thunderstorm,125
2013-6-17,85,78,71,72,68,64,93,79,64,30.06,30.00,29.92,10,10,3,20,3,29,0.03,6,Rain,192
2013-6-18,84,77,69,72,69,66,93,79,65,29.94,29.89,29.86,10,7,1,20,6,23,0.73,6,Rain-Thunderstorm,182
2013-6-19,88,77,65,68,64,60,93,68,42,30.06,30.00,29.94,10,10,10,12,3,16,0.00,3,,18
2013-6-20,89,79,68,67,66,63,90,68,46,30.19,30.14,30.07,10,10,10,17,3,23,T,5,Rain-Thunderstorm,110
2013-6-21,87,78,68,69,66,59,90,65,40,30.25,30.19,30.14,10,10,6,10,3,13,0.00,4,Fog,77
2013-6-22,88,78,68,69,64,60,93,67,40,30.22,30.16,30.07,10,10,6,8,2,13,0.00,3,Fog,104
2013-6-23,88,78,68,69,67,65,90,70,50,30.19,30.13,30.07,10,10,9,13,3,18,0.00,4,Fog,167
2013-6-24,89,80,70,71,69,66,93,70,47,30.23,30.15,30.08,10,10,6,15,4,32,0.00,5,,186
2013-6-25,91,81,71,72,70,67,93,70,47,30.17,30.10,30.00,10,9,7,10,4,13,0.01,5,,174
2013-6-26,92,83,73,73,70,67,93,70,47,30.06,29.98,29.88,10,10,10,16,6,20,T,4,,211
2013-6-27,90,83,76,73,70,65,85,69,53,29.93,29.87,29.80,10,10,10,17,7,22,0.01,5,Thunderstorm,226
2013-6-28,93,81,69,73,69,66,94,70,46,29.83,29.76,29.66,10,9,1,31,5,41,0.30,4,Rain,252
2013-6-29,88,79,70,70,63,54,93,63,32,29.72,29.69,29.65,10,10,10,13,4,17,0.06,4,Fog-Rain,248
2013-6-30,89,78,66,66,62,53,93,61,29,29.82,29.74,29.68,10,8,1,21,5,26,0.30,5,Rain-Thunderstorm,318